GSAT 15

导读

GSAT-15是印度空间研究组织(ISRO)于2015年11月10日发射的通信卫星,由印度空间研究组织研制,属于印度GSAT系列通信卫星成员。该卫星携带通信有效载荷,旨在加强印度国内的通信基础设施覆盖,为用户提供通信广播服务,同时还承载了导航相关有效载荷,助力印度区域卫星导航系统(IRNSS),提升导航服务能力与冗余度,服务印度及周边区域的通信与定位需求。

Basic Information
目录编号:
41028
目录名称:
GSAT 15
国际标识:
2015-065A
轨道中心:
EARTH
卫星名称:
GSAT 15
卫星全名:
--
卫星状态:
在轨 (已飞行3961 天)
发射日期:
2015-11-10 UTC
国别 :
印度 (IN)
星等 :
--
This satellite is enrolled in the Space Conjunction Data Service (SCDS) and the current flight risk assessment level is: No High Risk
Orbit Information
数据来源 国际轨道数据 AOE轨道数据
星历时间 2026-09-13T15:27:14+0800
21小时前
查看轨道信息
2026-09-13T03:00:00+0800
1天前
查看轨道信息
半长轴 42165.485km 42165.429km
偏心率 0.0001659 0.0001771
轨道倾角 0.041° 0.041°
近地点辐角 241.053° 238.320°
升交点赤经 262.722° 261.625°
平近点角 53.808° 230.323°
近地点 35780.352km 35779.824km
远地点 35794.344km 35794.76km
周期 1436.135分钟 1436.132分钟
每日圈数 1.002691 1.002693
Detailed Information
使用方式:
暂无
2D Orbit Map
3D Orbit Map
Orbit Altitude Analysis Chart
Orbit Inclination Analysis Chart
Orbit Comprehensive Analysis Chart
View Comprehensive Chart
Miss Distance Evolution Trend with All Objects Subscribe to Flight Safety Assessment
Collision Probability Evolution Trend with All Objects Subscribe to Flight Safety Assessment